Vitoria, Spain

9:47 AM CEST on March 28, 2017 (GMT +0200)
Vitoria

Weather History for LEVT - March, 2013

Change the Weather History Date:

Saturday, March 16, 2013

  Actual Average Record
Temperature  
Mean Temperature 40 °F -  
Max Temperature 48 °F 59 °F 73 °F (2005)
Min Temperature 33 °F 37 °F 29 °F (2016)
Degree Days  
Heating Degree Days 24    
Moisture  
Dew Point 35 °F    
Average Humidity 82    
Maximum Humidity 100    
Minimum Humidity 66    
Precipitation  
Precipitation 0.00 in - - ()
Sea Level Pressure  
Sea Level Pressure 29.78 in    
Wind  
Wind Speed 4 mph ()    
Max Wind Speed 20 mph    
Max Gust Speed 28 mph    
Visibility 6.2 miles    
Events      
Averages and records for this station are not official NWS values.
T = Trace of Precipitation, MM = Missing Value Source: Averaged Metar Reports

Daily Weather History Graph

Daily Weather History Graph

Search for Another Location

Airport or City:

Trip Planner

Search our weather history database for the weather conditions in past years. The results will help you decide how hot, cold, wet, or windy it might be!

Date:

Astronomy

Mar. 16, 2013 Rise Set
Actual Time 7:21 AM CET 7:18 PM CET
Civil Twilight 6:52 AM CET 7:46 PM CET
Nautical Twilight 6:20 AM CET 8:19 PM CET
Astronomical Twilight 5:46 AM CET 8:53 PM CET
Moon 9:33 AM CET (3/16) No Moon Set
Length of Visible Light 12h 53m
Length of Day
11h 57m
Waxing Crescent, 21% of the Moon is Illuminated
Mar 16
Waxing Crescent
Mar 19
First Quarter
Mar 27
Full
Apr 3
Last Quarter
Apr 10
New

Hourly Weather History & Observations

Time (CET) Temp. Windchill Dew Point Humidity Pressure Visibility Wind Dir Wind Speed Gust Speed Precip Events Conditions
12:00 AM 33.8 °F - 32.0 °F 93% 29.95 in - Calm Calm - N/A   Clear
12:30 AM 33.8 °F - 33.8 °F 100% 29.92 in - Calm Calm - N/A   Clear
1:00 AM 33.8 °F - 33.8 °F 100% 29.92 in - Calm Calm - N/A   Clear
1:30 AM 33.8 °F - 32.0 °F 93% 29.92 in - Calm Calm - N/A   Clear
2:00 AM 33.8 °F - 32.0 °F 93% 29.89 in - Variable 1.2 mph - N/A   Clear
2:30 AM 33.8 °F - 32.0 °F 93% 29.89 in - Variable 1.2 mph - N/A   Clear
3:00 AM 33.8 °F - 33.8 °F 100% 29.89 in - WNW 1.2 mph - N/A   Clear
3:30 AM 33.8 °F - 32.0 °F 93% 29.86 in - Calm Calm - N/A   Clear
4:00 AM 33.8 °F - 32.0 °F 93% 29.86 in - SW 1.2 mph - N/A   Clear
4:30 AM 33.8 °F - 33.8 °F 100% 29.83 in - Calm Calm - N/A   Clear
5:00 AM 33.8 °F - 32.0 °F 93% 29.83 in - ENE 1.2 mph - N/A   Clear
5:30 AM 33.8 °F - 32.0 °F 93% 29.83 in - Variable 2.3 mph - N/A   Clear
6:00 AM 33.8 °F - 32.0 °F 93% 29.83 in - Calm Calm - N/A   Clear
6:30 AM 33.8 °F - 33.8 °F 100% 29.83 in - Calm Calm - N/A   Clear
7:00 AM 37.4 °F 34.9 °F 32.0 °F 81% 29.83 in - SW 3.5 mph - N/A   Clear
7:30 AM 37.4 °F 32.1 °F 32.0 °F 81% 29.83 in - WSW 6.9 mph - N/A   Clear
8:00 AM 37.4 °F 32.1 °F 32.0 °F 81% 29.83 in - WSW 6.9 mph - N/A   Clear
8:30 AM 37.4 °F 32.8 °F 32.0 °F 81% 29.83 in - WSW 5.8 mph - N/A   Clear
9:00 AM 37.4 °F 32.8 °F 32.0 °F 81% 29.80 in 6.2 mi West 5.8 mph - N/A   Scattered Clouds
9:30 AM 39.2 °F 35.0 °F 32.0 °F 75% 29.80 in 6.2 mi WSW 5.8 mph - N/A   Scattered Clouds
10:30 AM 41.0 °F 39.0 °F 35.6 °F 81% 29.80 in 6.2 mi SW 3.5 mph - N/A   Mostly Cloudy
11:00 AM 41.0 °F 38.0 °F 35.6 °F 81% 29.80 in 6.2 mi West 4.6 mph - N/A   Mostly Cloudy
11:30 AM 42.8 °F - 33.8 °F 70% 29.77 in 6.2 mi Variable 1.2 mph - N/A   Mostly Cloudy
12:30 PM 42.8 °F 41.1 °F 35.6 °F 76% 29.77 in 6.2 mi West 3.5 mph - N/A   Mostly Cloudy
1:00 PM 42.8 °F - 37.4 °F 81% 29.77 in 6.2 mi Variable 2.3 mph - N/A   Mostly Cloudy
1:30 PM 44.6 °F 39.7 °F 37.4 °F 76% 29.77 in 6.2 mi SSW 9.2 mph - N/A   Mostly Cloudy
2:00 PM 46.4 °F 41.5 °F 39.2 °F 76% 29.74 in 6.2 mi SSW 10.4 mph - N/A   Mostly Cloudy
2:30 PM 46.4 °F 40.4 °F 37.4 °F 71% 29.74 in 6.2 mi SW 13.8 mph - N/A   Mostly Cloudy
3:00 PM 46.4 °F 39.0 °F 37.4 °F 71% 29.71 in 6.2 mi SW 19.6 mph - N/A   Light Drizzle
3:30 PM 48.2 °F - 37.4 °F 66% 29.71 in 6.2 mi SW 16.1 mph - N/A   Mostly Cloudy
4:00 PM 48.2 °F - 37.4 °F 66% 29.71 in 6.2 mi SW 10.4 mph - N/A   Mostly Cloudy
4:30 PM 46.4 °F 43.5 °F 37.4 °F 71% 29.71 in 6.2 mi South 5.8 mph - N/A   Mostly Cloudy
5:00 PM 46.4 °F 42.4 °F 37.4 °F 71% 29.71 in 6.2 mi South 8.1 mph - N/A   Mostly Cloudy
5:30 PM 46.4 °F 40.1 °F 39.2 °F 76% 29.71 in 6.2 mi SW 15.0 mph 26.5 mph N/A   Mostly Cloudy
6:00 PM 46.4 °F 39.8 °F 39.2 °F 76% 29.71 in 6.2 mi SSW 16.1 mph 27.6 mph N/A   Mostly Cloudy
6:30 PM 46.4 °F 39.5 °F 37.4 °F 71% 29.68 in 6.2 mi SW 17.3 mph - N/A   Mostly Cloudy
7:00 PM 46.4 °F 40.1 °F 37.4 °F 71% 29.68 in 6.2 mi SW 15.0 mph - N/A   Mostly Cloudy
7:30 PM 46.4 °F 40.1 °F 39.2 °F 76% 29.71 in 6.2 mi SW 15.0 mph - N/A   Mostly Cloudy
8:00 PM 46.4 °F 41.9 °F 39.2 °F 76% 29.71 in 6.2 mi SW 9.2 mph - N/A   Mostly Cloudy
8:30 PM 46.4 °F 42.9 °F 39.2 °F 76% 29.71 in 6.2 mi SSW 6.9 mph - N/A   Mostly Cloudy
9:30 PM 44.6 °F 42.2 °F 39.2 °F 81% 29.68 in 6.2 mi East 4.6 mph - N/A   Overcast
10:00 PM 44.6 °F 43.1 °F 39.2 °F 81% 29.68 in 6.2 mi SE 3.5 mph - N/A   Mostly Cloudy
10:30 PM 42.8 °F - 39.2 °F 87% 29.68 in 6.2 mi Calm Calm - N/A   Scattered Clouds
11:00 PM 44.6 °F - 37.4 °F 76% 29.68 in 6.2 mi NNW 1.2 mph - N/A   Overcast
11:30 PM 46.4 °F 41.9 °F 37.4 °F 71% 29.68 in 6.2 mi WSW 9.2 mph - N/A   Overcast